Location: Unspecified
(0.0000°N, 0.0000°E)
Time: 18:49:29
(UTC+00:00)

A-11 Canister half - Pass Details

Date: 26 November 2019
Orbit: 1515 x 1685 km, 47.2° (Epoch: 05 December)

Event Time Altitude Azimuth Distance (km) Brightness Sun altitude
Rises 15:12:23 0° 268° (W) 4,766 12.4 35.7°
Reaches altitude 10° 15:18:22 10° 296° (WNW) 3,822 11.7 34.4°
Maximum altitude 15:21:43 12° 317° (NW) 3,677 11.3 33.6°
Drops below altitude 10° 15:25:06 10° 337° (NNW) 3,865 11.2 32.9°
Sets 15:31:22 0° 6° (N) 4,886 11.4 31.5°
